Volver al catálogo

OSCAR 32

ActivoRadioaficionadoPO
NORAD 19071·PAYLOAD·🇺🇸 United States

Lanzado Apr 26, 1988 desde Vandenberg Space Force Base

Loading…

Próximos Pases (próximas 24 horas)

TLE

ActualizadoSource: Space-Track

Época: Sep 14, 2026, 15:16 UTC

1 19071U 88033B   26257.63679275  .00000031  00000-0  42780-4 0  9996
2 19071  90.3361  25.2799 0189493 119.5156 254.1709 13.27989085859279

Sigue OSCAR 32 en tiempo real con AllMySat

Download on the App Store